This demonstration page uses our WeatherBlox Daily Observations layout. Learn more.

Left ArrowRight Arrow

Hourly Observations for August 8, 2020

Temp ( °F °C ) Dew Point ( °F °C ) Humidity (%) Winds ( mph kmh ) Pressure ( in mb ) Visibility ( mi km ) Precip ( " mm )
12:15 am 00:15 Clear 56 13.1 55 12.5 96 96 Calm 30.18 1022 10 16 0.00 0.00
12:35 am 00:35 Clear 56 13.4 55 12.6 95 95 Calm 30.19 1022 10 16 0.00 0.00
12:55 am 00:55 Clear 56 13.3 55 12.6 96 96 Calm 30.19 1022 10 16 0.00 0.00
1:15 am 01:15 Clear 57 13.8 55 13 95 95 Calm 30.19 1022 10 16 0.00 0.00
1:35 am 01:35 Clear 55 12.6 53 11.9 96 96 Calm 30.18 1022 10 16 0.00 0.00
1:55 am 01:55 Clear 55 12.5 54 12 97 97 Calm 30.18 1022 10 16 0.00 0.00
2:15 am 02:15 Clear 55 12.8 54 12.4 97 97 Calm 30.19 1022 10 16 0.00 0.00
2:35 am 02:35 Clear 55 12.9 54 12.2 96 96 Calm 30.19 1022 10 16 0.00 0.00
2:55 am 02:55 Clear 55 12.5 53 11.8 96 96 Calm 30.19 1022 10 16 0.00 0.00
3:15 am 03:15 Clear 53 11.6 53 11.5 99 99 Calm 30.20 1023 7 11 0.00 0.00
3:35 am 03:35 Clear 54 12.1 53 11.9 99 99 Calm 30.19 1022 10 16 0.00 0.00
3:55 am 03:55 Clear 54 12.4 54 12 97 97 Calm 30.19 1022 10 16 0.00 0.00
4:15 am 04:15 Clear 54 12 53 11.6 97 97 Calm 30.19 1022 10 16 0.00 0.00
4:35 am 04:35 Clear 54 12.2 53 11.7 97 97 Calm 30.20 1023 10 16 0.00 0.00
4:55 am 04:55 Clear 53 11.6 52 11.2 97 97 Calm 30.21 1023 10 16 0.00 0.00
5:15 am 05:15 Clear 52 11.3 52 11 98 98 Calm 30.20 1023 7 11 0.00 0.00
5:35 am 05:35 Clear 52 11.1 52 10.9 99 99 Calm 30.20 1023 10 16 0.00 0.00
5:55 am 05:55 Clear 52 10.9 51 10.7 99 99 Calm 30.19 1022 10 16 0.00 0.00
6:15 am 06:15 Clear 53 11.4 52 11.2 99 99 Calm 30.19 1022 10 16 0.00 0.00
6:35 am 06:35 Clear 53 11.5 52 11.1 97 97 Calm 30.20 1023 10 16 0.00 0.00
6:55 am 06:55 Sunny 52 11.2 52 10.9 98 98 Calm 30.20 1023 10 16 0.00 0.00
7:15 am 07:15 Sunny 52 11.3 52 11.1 99 99 Calm 30.22 1023 10 16 0.00 0.00
7:35 am 07:35 Sunny 54 12.3 53 11.9 97 97 Calm 30.21 1023 10 16 0.00 0.00
7:55 am 07:55 Sunny 56 13.3 55 12.8 97 97 Calm 30.21 1023 10 16 0.00 0.00
8:15 am 08:15 Sunny 58 14.4 57 13.7 96 96 Calm 30.21 1023 10 16 0.00 0.00
8:35 am 08:35 Sunny 61 16.1 59 15 93 93 Calm 30.21 1023 10 16 0.00 0.00
8:55 am 08:55 Sunny 64 18 59 15 83 83 Calm 30.20 1023 10 16 0.00 0.00
9:15 am 09:15 Sunny 65 18.5 59 15.1 81 81 Calm 30.21 1023 10 16 0.00 0.00
9:35 am 09:35 Sunny 68 19.9 61 16.1 79 79 Calm 30.21 1023 10 16 0.00 0.00
9:55 am 09:55 Sunny 69 20.6 62 16.4 77 77 Calm 30.19 1022 10 16 0.00 0.00
10:15 am 10:15 Sunny 71 21.4 61 16.2 72 72 Calm 30.20 1023 10 16 0.00 0.00
10:35 am 10:35 Sunny 73 22.5 62 16.4 69 69 Calm 30.20 1023 10 16 0.00 0.00
10:55 am 10:55 Sunny 74 23.2 60 15.5 62 62 Calm 30.20 1023 10 16 0.00 0.00
11:15 am 11:15 Sunny 74 23.4 60 15.5 61 61 SE 3 6 30.19 1023 10 16 0.00 0.00
11:35 am 11:35 Sunny 74 23.6 59 15.1 59 59 SSE 3 6 30.19 1022 10 16 0.00 0.00
11:55 am 11:55 Sunny 75 23.9 58 14.6 56 56 Calm 30.19 1022 10 16 0.00 0.00
12:15 pm 12:15 Sunny 76 24.3 58 14.7 55 55 SSE 3 6 30.19 1022 10 16 0.00 0.00
12:35 pm 12:35 Sunny 76 24.7 59 15.2 56 56 SE 5 7 30.19 1022 10 16 0.00 0.00
12:55 pm 12:55 Sunny 78 25.3 59 15.1 53 53 Calm 30.18 1022 10 16 0.00 0.00
1:15 pm 13:15 Sunny 77 24.9 58 14.3 52 52 Calm 30.17 1022 10 16 0.00 0.00
1:35 pm 13:35 Sunny 78 25.4 59 15 53 53 Calm 30.17 1022 10 16 0.00 0.00
1:55 pm 13:55 Sunny 78 25.5 59 14.9 52 52 Calm 30.15 1021 10 16 0.00 0.00
2:15 pm 14:15 Sunny 78 25.7 60 15.3 53 53 Calm 30.15 1021 10 16 0.00 0.00
2:35 pm 14:35 Sunny 79 26 59 15.2 51 51 Calm 30.14 1021 10 16 0.00 0.00
2:55 pm 14:55 Sunny 79 26.1 60 15.4 52 52 SW 5 7 30.13 1020 10 16 0.00 0.00
3:15 pm 15:15 Sunny 80 26.5 61 15.9 52 52 Calm 30.12 1020 10 16 0.00 0.00
3:35 pm 15:35 Sunny 80 26.9 61 15.9 51 51 Calm 30.11 1020 10 16 0.00 0.00
3:55 pm 15:55 Sunny 81 27.2 61 16.1 51 51 Calm 30.11 1020 10 16 0.00 0.00
4:15 pm 16:15 Sunny 81 27 60 15.6 50 50 WSW 5 7 30.11 1020 10 16 0.00 0.00
4:35 pm 16:35 Sunny 81 27.2 60 15.6 49 49 SW 3 6 30.11 1020 10 16 0.00 0.00
4:55 pm 16:55 Sunny 81 27.4 60 15.3 48 48 W 5 7 30.11 1020 10 16 0.00 0.00
5:15 pm 17:15 Sunny 81 27.2 60 15.3 48 48 Calm 30.11 1020 10 16 0.00 0.00
5:35 pm 17:35 Sunny 81 27.4 61 16.1 50 50 Calm 30.10 1019 10 16 0.00 0.00
5:55 pm 17:55 Sunny 81 27.2 61 16.1 51 51 Calm 30.09 1019 10 16 0.00 0.00
6:15 pm 18:15 Sunny 81 27.3 60 15.8 49 49 Calm 30.10 1019 10 16 0.00 0.00
6:35 pm 18:35 Sunny 81 27.1 61 16.1 51 51 Calm 30.09 1019 10 16 0.00 0.00
6:55 pm 18:55 Sunny 80 26.7 64 17.7 58 58 W 3 6 30.09 1019 10 16 0.00 0.00
7:15 pm 19:15 Sunny 80 26.8 64 17.7 57 57 WNW 3 6 30.09 1019 10 16 0.00 0.00
7:35 pm 19:35 Sunny 79 26.2 65 18.5 63 63 Calm 30.10 1019 10 16 0.00 0.00
7:55 pm 19:55 Sunny 77 24.9 68 20 74 74 N 3 6 30.11 1020 10 16 0.00 0.00
8:15 pm 20:15 Sunny 74 23.6 68 20 80 80 NNE 3 6 30.10 1019 10 16 0.00 0.00
8:35 pm 20:35 Sunny 74 23.1 67 19.6 81 81 W 3 6 30.12 1020 10 16 0.00 0.00
8:55 pm 20:55 Clear 71 21.8 67 19.2 85 85 W 3 6 30.11 1020 10 16 0.00 0.00
9:15 pm 21:15 Clear 68 20 65 18.2 89 89 SW 5 7 30.13 1020 10 16 0.00 0.00
9:35 pm 21:35 Clear 67 19.4 64 17.9 91 91 SE 3 6 30.13 1020 10 16 0.00 0.00
9:55 pm 21:55 Clear 66 19 64 17.6 92 92 Calm 30.14 1021 10 16 0.00 0.00
10:15 pm 22:15 Clear 68 19.9 64 17.5 86 86 S 6 9 30.14 1021 7 11 0.00 0.00
10:35 pm 22:35 Clear 68 20.2 63 17.4 84 84 SW 6 9 30.14 1021 10 16 0.00 0.00
10:55 pm 22:55 Clear 68 20 63 17.1 83 83 S 5 7 30.14 1021 10 16 0.00 0.00
11:15 pm 23:15 Clear 65 18.2 62 16.8 92 92 Calm 30.14 1021 10 16 0.00 0.00
11:35 pm 23:35 Clear 64 18 62 16.6 92 92 Calm 30.14 1021 10 16 0.00 0.00
11:55 pm 23:55 Clear 65 18.3 62 16.7 90 90 Calm 30.14 1021 10 16 0.00 0.00

Powered by AerisWeather